Location: Ward Pound Ridge Reservation
(41.2500°N, 73.6000°W)
Time: 02:34:23
(UTC-04:00)

OTV 5 (USA 277) - Pass Details

Date: 15 October 2017
Orbit: 404 x 417 km, 43.0° (Epoch: 07 September)

Event Time Altitude Azimuth Distance (km) Brightness Sun altitude
Rises 18:42:12 0° 262° (W) 2,350 ? -6.2°
Reaches altitude 10° 18:44:19 10° 264° (W) 1,489 ? -6.6°
Maximum altitude 18:47:41 74° 350° (N) 436 ? -7.3°
Enters shadow 18:51:00 10° 76° (ENE) 1,474 ? -7.9°
